Location: Fontevrault
(47.1823°N, 0.0493°E)
Time: 11:55:28
(UTC+00:00)

Lacrosse 5 - Pass Details

Date: 01 November 2021
Orbit: 714 x 724 km, 57.0° (Epoch: 28 August)

Event Time Altitude Azimuth Distance (km) Brightness Sun altitude
Rises 20:29:28 0° 267° (W) 3,137 5.9 -38.5°
Reaches altitude 10° 20:32:03 10° 276° (W) 2,217 5.0 -38.9°
Enters shadow 20:33:37 18° 287° (WNW) 1,714 4.4 -39.1°
